Погода в Красноселькупе

Погода в Красноселькупе : погода сейчас, прогноз погоды и архив. Всё, что Вы хотите узнать о погоде в Красноселькупе!

Поиск расширенной информации на нашем сайте:

Другие новости

Новости СМИ2

Главная страница сайта

Новости сайта

03.07.2017

Напоминаем, что на нашем специализированном сайте Метеоцентр.Азия вы можете получить высокодетализированные автоматические прогнозы погоды по пунктам России, СНГ и мира в авиационном формате (включающие направление и скорость ветра, видимость, явления погоды, количество и форму облачности, нижнюю и верхнюю границу облачности).

Рекомендуем: Ответы анимационные картинки грузовых машин.

Погода в Красноселькупе - сегодня

Время (UTC), дата Ветер
(°,м/с) 
Видим.   Явления Облачность Т
(°С)
Тd
(°С)
f(%) Тe
(°С)
Pmin
(гПа)
dP
(гПа)
Po
(мм)
O2
(г/м3)
Тmin Tmax R s Состояние
почвы
03 24.07.17 190 (Ю) 20000 м    ясно 
+24.9 +10.7 41 +27  1012.2  -0.6  757  278  -13.5         
06 24.07.17 200 (Ю) 20000 м    ясно 
+28.4 +6.9 26 +28  1011.3  -1  756  275           
09 24.07.17 210 (ЮЗ) 20000 м    ясно 
+29.3 +5.5 22 +29  1010.1  -1.3  755  274           
12 24.07.17 270 (З) 20000 м    ясно 
+29.7 +5.6 22 +30  1008.5  -1.3  777  281           
15 24.07.17 300 (СЗ) 20000 м    4/0 верхняя 
[Ci fib]
+25.3 +11.4 42 +28  1007.9  -0.7  754  276    +29.9       
18 24.07.17 тихо ()   20000 м    8/8 600 м 
[Cu hum]
+18.7 +12 65 +23  1007.7  -0.3  754  282           
21 24.07.17 040 (СВ) 20000 м    8/6 600 м верхняя 
[Cu med, cong|Ci fib]
+16.2 +11.8 75 +22  1006.9  -0.8  753  284           
00 25.07.17 тихо ()   20000 м    10/0 верхняя 
[Ci fib]
+19.1 +13.8 71 +26  1006.4  -0.5  753  281           
03 25.07.17 110 (В) 20000 м    10/0 верхняя 
[Ci fib]
+24.1 +13.8 53 +31  1006.4  -0.3  752  276  +14.2         
06 25.07.17 210 (ЮЗ) 20000 м    3/1 1000 м верхняя 
[Cu med, cong|Ci fib]
+28.5 +7.8 27 +29  1005.2  -0.8  752  273           
09 25.07.17 360 (С) 20000 м  гроза без осадков  8/8 600 м кучево-дожд. 
[Cb cap]
+25 +9.3 37 +25  1005  -0.2  752  276           
12 25.07.17 170 (Ю) 20000 м  {гроза}  8/3 1000 м верхняя 
[Cu med, cong|Ci fib]
+26.8 +8 30 +27  1004.3  -0.7  751  274           
15 25.07.17 020 (С) 20000 м    9/0 средняя 
[Ac trans]
+21 +12.1 57 +25  1004.8  0.4  751  279    +30       
18 25.07.17 050 (СВ) 20000 м    8/0 средняя 
[Ac trans]
+18.2 +11.2 64 +22  1004.3  -0.5  751  282           
21 25.07.17 040 (СВ) 20000 м    9/9 600 м 
[Sc]
+15.9 +12.1 78 +20  1004.4  0.1  751  284           
00 26.07.17 030 (СВ) 20000 м    10/0 средняя, верхняя 
[Ac trans|Ci fib]
+15 +10.5 74 +17  1005  0.6  752  285           
03 26.07.17 030 (СВ) 20000 м    9/0 верхняя 
[Ci fib]
+17 +9.4 61 +17  1005.3  0.3  752  283  +14.6        сухая 
06 26.07.17 020 (С) 6{10}  20000 м    4/0 верхняя 
[Ci fib]
+20.8 +6.7 40 +21  1005.6  0.3  752  280           
09 26.07.17 020 (С) 6{11}  20000 м    5/0 верхняя 
[Ci fib]
+22.1 +3.8 30 +22  1005.5  752  280           
12 26.07.17 020 (С) 5{11}  20000 м    5/0 верхняя 
[Ci fib]
+20.8 +2.9 31 +21  1005.6  752  281           
15 26.07.17 020 (С) 20000 м    3/0 средняя, верхняя 
[Ac trans|Ci fib]
+17.6 +3.6 39 +18  1006.3  0.7  752  284    +22.7       
18 26.07.17 360 (С) 20000 м    6/0 средняя, верхняя 
[Ac trans|Ci fib]
+12.8 +4.4 57 +12  1007  0.6  753  289           
21 26.07.17 020 (С) 20000 м    3/0 средняя, верхняя 
[Ac trans|Ci fib]
+9.2 +4.6 73 +9  1007.6  0.6  753  293           
00 27.07.17 020 (С) 20000 м    ясно 
+9.8 +5 72 +9  1008.1  0.5  754  292           
03 27.07.17 360 (С) 20000 м    ясно 
+14.8 +5.1 52 +15  1007.8  -0.3  754  287  +8.4        сухая 
Время (UTC), дата Ветер
(°,м/с) 
Видим.   Явления Облачность Т
(°С)
Тd
(°С)
f(%) Тe
(°С)
Pmin
(гПа)
dP
(гПа)
Po
(мм)
O2
(г/м3)
Тmin Tmax R s Состояние
почвы

Для получения пояснительной информации подведите курсор к названию столбца.

ПОГОДА в Красноселькупе - архив

Всё, что Вы хотите узнать о погоде в Красноселькупе - удобно и подробно!

Выберите нужную дату (начиная с 1 января 2015* года) и нажмите кнопку "Найти".
Будут отображены архивные сводки погоды по пункту Красноселькуп, начиная с указанной даты.


Отображать данные в формате CSV (для использования в таблицах Excel)


Внимание! Наш архив погоды предназначен исключительно для личного некоммерческого использования в познавательных целях. Если Вам необходимы официальные справки о состоянии погоды (для производственных, юридических, коммерческих и т.п. целей), обращайтесь в органы Росгидромета.

*Примечание: данная дата относится к архиву по метеостанциям СССР (Россия, СНГ, Балтия).
Архив по метеостанциям Зарубежной Европы и Азии (кроме Китая) хранится 10 дней, по другим регионам земного шара (Китай, Африка, Америка, Австралия, Океания) - 1 день.

Красноселькуп - район местоположения метеостанции


Название, широта, долгота, высота метеостанции:
Красноселькуп 65.7°ш. 82.5°д. 60 м над ур. моря [Российская Федерация]

Дополнительная информация

В oтличие oт бoльшинства пoгoдных сайтoв мы публикуем пoдрoбную метеoинфoрмацию в детальнoм прoфессиoнальнoм фoрмате.

Характеристики температуры и влажнoсти вoздуха измеряются на высoте 2 м в тени вдали oт зданий и деревьев.
Скoрoсть ветра измеряется на высoте 10 м (на урoвне рoста челoвека скoрoсть ветра ниже в 1.5-2 раза). Если метеoстанция нахoдится в гoрoде или в лесу, тo скoрoсть ветра занижена на 2-4 м/с пo сравнению с oткрытым местoм. Скoрoсть ветра над акватoриями крупных рек и oзёр, а также на вершинах хoлмoв на 2-5 м/с выше, чем в oбычных услoвиях.
Атмoсфернoе давление в разных тoчках местнoсти мoжет значительнo oтличаться oт давления на метеoстанции, в зависимoсти oт услoвий рельефа (при пoдъёме на 10 м давление пoнижается примернo на 1 мм рт.ст.).